Tracking 19575 objects as of 19-Feb-2019
HD Live streaming from Space Station
objects crossing your sky now

IRIDIUM 59

Track IRIDIUM 59 now!
10-day predictions
IRIDIUM 59 is classified as:


NORAD ID: 25275
Int'l Code: 1998-019D
Perigee: 783.4 km
Apogee: 786.2 km
Inclination: 86.4 °
Period: 100.4 minutes
Semi major axis: 7155 km
RCS: 4.0396 m2 (large)
Launch date: March 30, 1998
Source: United States (US)
Launch site: AIR FORCE WESTERN TEST RANGE (AFWTR)
aabbcc
Your satellite tracking list
Your tracking list is empty




NASA's NSSDC Master Catalog

Two Line Element Set (TLE):
1 25275U 98019D   19049.90640066 +.00000085 +00000-0 +23247-4 0  9997
2 25275 086.3959 031.6703 0002005 090.1471 269.9955 14.34216616093823
Source of the keplerian elements: AFSPC